Preview of NWS' New Version of Forecast
This preview is not operational and should not be used for support decisions.

Regional Weather Roundup (RWR)

Issued by National Weather Service (NWS)

                            
000
ASUS43 KMKX 201721
RWRWI 

WISCONSIN REGIONAL WEATHER ROUNDUP
NATIONAL WEATHER SERVICE MILWAUKEE/SULLIVAN WI
1200 PM CDT TUE AUG 20 2019

NOTE: "FAIR" INDICATES FEW OR NO CLOUDS BELOW 12,000 FEET WITH NO
SIGNIFICANT WEATHER AND/OR OBSTRUCTIONS TO VISIBILITY.

WIZ001-002-006>008-014>016-023>028-201800-
NORTHWEST WISCONSIN
  
CITY           SKY/WX    TMP DP  RH WIND       PRES   REMARKS
SUPERIOR ARPT  FAIR      73  63  68 SW7       29.94F                  
ASHLAND        FAIR      69  60  73 SW14      29.95R                  
HAYWARD        FAIR      66  60  81 S8        29.92S                  
SIREN          FAIR      64  61  92 S5        29.90R                  
CUMBERLAND     FAIR      63  57  82 S9        29.91S                  
RICE LAKE      FAIR      64  48  55 SE14      29.92R                  
CHETEK         FAIR      64  61  90 SE14G25   29.91F                  
LADYSMITH      FAIR      66  62  85 SE8       29.93R                  
EAU CLAIRE     RAIN      64  62  93 CALM      30.04F FOG              
MENOMONIE      RAIN      61  60  97 SE10      30.03F                  
NEW RICHMOND   FAIR      67  58  72 SE9G18    29.88R                  
OSCEOLA        FAIR      66  65  98 SW5       29.95R                  
$$
 
WIZ003>005-009-010-017-018-201800-
NORTH CENTRAL WISCONSIN
  
CITY           SKY/WX    TMP DP  RH WIND       PRES   REMARKS
MANITOWISH WTR PTSUNNY   67  61  82 SE6       29.95F                  
ARBOR VITAE    FAIR      72  63  73 S8        29.95F                  
WOODRUFF       FAIR      72  63  73 S8        29.95F                  
RHINELANDER    FAIR      71  59  65 W8        30.05F                  
EAGLE RIVER    FAIR      70  58  64 W9        30.02F                  
LAND O LAKES   FAIR      72  59  64 SW3       29.99F                  
PHILLIPS       FAIR      67  62  85 SE9G17    29.92F                  
TOMAHAWK       FAIR      69  59  71 W7        30.04F                  
MEDFORD        FAIR      67  60  76 NW8G17    30.05F                  
MERRILL        FAIR      72  61  68 NW8       30.04F                  
$$
 
WIZ029-030-035-036-043>047-201800-
CENTRAL WISCONSIN
  
CITY           SKY/WX    TMP DP  RH WIND       PRES   REMARKS
WAUSAU         FAIR      76  61  59 W15       30.03R                  
MOSINEE        PTSUNNY   77  64  65 NW12      30.05S                  
MARSHFIELD     CLOUDY    74  62  66 NW12      30.05R                  
STEVENS POINT  FAIR      76  61  60 NW5       30.01S                  
WAUPACA        FAIR      81  62  52 SW3       30.00S HX  82           
WAUTOMA        FAIR      75  65  70 SE6       29.99S                  
WISC RAPIDS    PTSUNNY   77  63  61 W5        30.02R                  
CAMP DOUGLAS   PTSUNNY   79  68  69 NW3       29.99R HX  81           
$$
 
WIZ011>013-019>022-031-037>040-048>050-201800-
NORTHEAST WISCONSIN
  
CITY           SKY/WX    TMP DP  RH WIND       PRES   REMARKS
ANTIGO         FAIR      73  59  61 W14G20    30.05R                  
SHAWANO        FAIR      78  63  59 W6        30.00R HX  80           
OCONTO         FAIR      76  59  55 W5        29.98S                  
STURGEON BAY   FAIR      76  61  59 SW7       29.99F                  
GREEN BAY      FAIR      79  62  56 S9        30.00R HX  80           
MANITOWOC      FAIR      75  66  73 SE7       30.00R                  
APPLETON       PTSUNNY   75  59  57 VRB5      29.99R                  
CLINTONVILLE   FAIR      77  60  54 SW7       30.00S                  
OSHKOSH        PTSUNNY   76  68  76 NE3       30.00R                  
$$
 
WIZ032>034-041-042-053>061-201800-
SOUTHWEST WISCONSIN
  
CITY           SKY/WX    TMP DP  RH WIND       PRES   REMARKS
LA CROSSE      FAIR      81  66  60 NW13      30.00R HX  83           
SPARTA         FAIR      76  65  67 W7        30.01R                  
VIROQUA        FAIR      76  68  75 N10G18    30.01R                  
BOSCOBEL       FAIR      78  66  66 E5        29.95R HX  80           
PRAIRIE DU CHI FAIR      77  64  62 CALM      29.93R                  
PLATTEVILLE    FAIR      75  71  89 NE9       29.96R                  
$$

WIZ056-057-062-063-064-067-068-201800-
SOUTH CENTRAL WISCONSIN
  
CITY           SKY/WX    TMP DP  RH WIND       PRES   REMARKS
REEDSBURG      FAIR      75  68  77 N3        29.99R                  
BARABOO/DELLS  FAIR      75  67  76 CALM      29.99R                  
LONE ROCK      FAIR      74  68  81 E8        29.97R                  
MINERAL POINT    N/A     75  72  88 NE10      29.96F                  
MADISON        CLOUDY    75  68  78 SE13      29.97S                  
MIDDLETON      FAIR      77   9   7 SE9       29.98S                  
WATERTOWN      PTSUNNY   74  74  98 SE9       29.99R                  
MONROE         FOG       68  68  98 E12       29.94F VSB 1/4          
JANESVILLE     LGT RAIN  72  72 100 E8        29.98F FOG              
$$
 
WIZ051-052-058>065-066-070>072-201800-
SOUTHEAST WISCONSIN
  
CITY           SKY/WX    TMP DP  RH WIND       PRES   REMARKS
MILWAUKEE      CLOUDY    76  68  76 E3        29.98F                  
WAUKESHA       MOSUNNY   73  66  78 SE6       30.01R                  
MILWAUKEE/TIMM SUNNY     77  63  61 SE7       30.01R                  
RACINE         FAIR      75  70  84 NE5       29.99F                  
KENOSHA        LGT RAIN  74  73  97 SW12      29.99F FOG              
FOND DU LAC    FAIR      80  69  69 CALM      29.99R HX  83           
SHEBOYGAN      PTSUNNY   77  67  71 S6        30.00R                  
WEST BEND      FAIR      77  70  78 S5        30.01R                  
JUNEAU         PTSUNNY   75  70  85 SE6       30.00S                  
$$

LSZ147-162-201800-
LAKE SUPERIOR
  
STATION/POSITION TIME  TEMP    WIND        PRES    WAVE
                       AIR SEA DIR/SP/G            HT/PER
                 (UTC) (F)     (DEG/KT/KT) (MB)    (FT/S)
W MID LAKE BUOY  1650   63 63  170/  8/ 10 1013.0F   1/ 3
DEVILS ISLAND    1700   67     200/  7/ 10 1013.7R
SAXON HARBOR     1640   69     300/ 10/ 27 1012.2S
$$
 
LMZ867-665-643>646-201800-
LAKE MICHIGAN
  
STATION/POSITION TIME  TEMP    WIND        PRES    WAVE
                       AIR SEA DIR/SP/G            HT/PER
                 (UTC) (F)     (DEG/KT/KT) (MB)    (FT/S)
S GREEN BAY BUOY 1700   76 71  220/  4/  4 1015.8
N MID LAKE BUOY  1700   69 70  220/ 12/ 14 1015.3
NORTHPORT PIER   1640   71     120/  5/  6 1014.9F
KEWAUNEE LAKESHO 1648   69     150/  6/  8 1015.0F
SHEBOYGAN LAKESH 1700   70      80/  5/  5 1015.7R
PORT WASHINGTON  1640   74      90/  4/  5 1016.6R
ATWATER BUOY     1700   71 71   40/  4/  4 1015.6    1/ 3
S MID LAKE BUOY  1700   74     150/  4/  4 1015.5
KENOSHA   LAKESH 1700   73      20/  2/  4 1014.9
$$

TC  - TEMPERATURE IN CELSIUS
VSB - VISIBILITY IN STATUTE MILES
WCI - WIND CHILL INDEX
HX  - HEAT INDEX